TimeEST,TemperatureF,Dew PointF,Humidity,Sea Level PressureIn,VisibilityMPH,Wind Direction,Wind SpeedMPH,Gust SpeedMPH,PrecipitationIn,Events,Conditions,WindDirDegrees,DateUTC
12:56 AM,46.9,26.1,44,30.20,10.0,SSW,5.8,-,N/A,,Mostly Cloudy,210,2013-12-01 05:56:00
1:56 AM,48.0,27.0,44,30.18,10.0,SSW,6.9,-,N/A,,Overcast,210,2013-12-01 06:56:00
2:56 AM,48.0,27.0,44,30.18,10.0,SSW,5.8,-,N/A,,Overcast,200,2013-12-01 07:56:00
3:56 AM,48.0,27.0,44,30.17,10.0,SSW,5.8,-,N/A,,Overcast,200,2013-12-01 08:56:00
4:56 AM,48.0,28.0,46,30.15,10.0,SSW,5.8,-,N/A,,Overcast,200,2013-12-01 09:56:00
5:56 AM,48.0,28.0,46,30.15,10.0,SSW,5.8,-,N/A,,Overcast,200,2013-12-01 10:56:00
6:56 AM,48.0,28.0,46,30.14,10.0,SSW,6.9,-,N/A,,Overcast,210,2013-12-01 11:56:00
7:56 AM,48.0,28.9,48,30.14,10.0,SW,6.9,-,N/A,,Overcast,220,2013-12-01 12:56:00
8:56 AM,48.0,28.9,48,30.15,10.0,SSW,8.1,-,N/A,,Overcast,200,2013-12-01 13:56:00
9:56 AM,50.0,30.0,46,30.14,10.0,SW,5.8,-,N/A,,Overcast,230,2013-12-01 14:56:00
10:56 AM,51.1,30.9,46,30.14,10.0,SW,8.1,-,N/A,,Overcast,220,2013-12-01 15:56:00
11:56 AM,52.0,32.0,47,30.11,10.0,SSW,8.1,-,N/A,,Mostly Cloudy,210,2013-12-01 16:56:00
12:56 PM,54.0,33.1,45,30.08,10.0,SW,9.2,-,N/A,,Mostly Cloudy,220,2013-12-01 17:56:00
1:56 PM,55.0,35.1,47,30.05,10.0,WSW,11.5,-,N/A,,Mostly Cloudy,240,2013-12-01 18:56:00
2:56 PM,55.9,35.1,45,30.03,10.0,SW,9.2,-,N/A,,Partly Cloudy,230,2013-12-01 19:56:00
3:56 PM,55.9,35.1,45,30.01,10.0,SW,8.1,-,N/A,,Partly Cloudy,230,2013-12-01 20:56:00
4:56 PM,53.1,36.0,52,30.01,10.0,SW,6.9,-,N/A,,Partly Cloudy,230,2013-12-01 21:56:00
5:56 PM,51.1,35.1,54,30.00,10.0,South,5.8,-,N/A,,Clear,190,2013-12-01 22:56:00
6:56 PM,48.0,34.0,58,30.01,10.0,South,4.6,-,N/A,,Clear,170,2013-12-01 23:56:00
7:56 PM,46.9,33.1,59,30.01,10.0,South,4.6,-,N/A,,Clear,180,2013-12-02 00:56:00
8:56 PM,45.0,33.1,63,30.01,10.0,Calm,Calm,-,N/A,,Partly Cloudy,0,2013-12-02 01:56:00
9:56 PM,43.0,34.0,71,30.01,10.0,Calm,Calm,-,N/A,,Mostly Cloudy,0,2013-12-02 02:56:00
10:56 PM,45.0,35.1,68,29.99,10.0,Calm,Calm,-,N/A,,Overcast,0,2013-12-02 03:56:00
11:56 PM,45.0,35.1,68,29.96,10.0,East,3.5,-,N/A,,Overcast,100,2013-12-02 04:56:00